(44124) = 1998 HM37 = 1999 TP203

Discovered at Socorro on 1998-04-20 by LINEAR.

Orbit

Orbit type: Main Belt

Note: WebGL enabled browser required.

epoch2023-09-13.0
epoch JD2460200.5
perihelion date2023-07-09.43650
perihelion JD2460134.93650
argument of perihelion (°)337.44404
ascending node (°)257.88122
inclination (°)2.74251
eccentricity0.1538573
perihelion distance (AU)1.9764271
Tisserand w.r.t. Jupiter3.6
ΔV w.r.t. Earth (km/sec)8.8
semimajor axis (AU)2.3358083
mean anomaly (°)18.10132
mean daily motion (°/day)0.27608830
aphelion distance (AU)2.695
period (years)3.57
P-vector [x]-0.56848747
P-vector [y]-0.74731657
P-vector [z]-0.34400574
Q-vector [x]0.82136077
Q-vector [y]-0.53934419
Q-vector [z]-0.18567265
absolute magnitude16.25
phase slope0.15
uncertainty0
referenceMPEC 2024-A34
observations used1114
oppositions19
arc length (days)10193
first opposition used1995
last opposition used2023
residual rms (arc-secs)0.71
perturbers coarse indicatorM-v
perturbers precise indicator003Ek
first observation date used1995-07-23.0
last observation date used2023-06-19.0
computer nameMPCLINUX
JD of orbit computation2456670.839902
perihelion JD uncertainty (days)9.5088E-05
argument of perihelion uncertainty (°)1.3250E-04
ascending node uncertainty (°)1.3036E-04
inclination uncertainty (°)3.4147E-06
eccentricity uncertainty 3.9407E-08
perihelion distance uncertainty (AU)9.6374E-08
Minimum Orbit Intersection Distances (in AU)
for orbit epoch: 2460200.5, reference: E2024-A34
Mercury1.51519
Venus1.2527
Earth0.96431
Mars0.41105
Jupiter2.3012
Saturn6.39797
Uranus16.1863
Neptune27.1703

Observations

1144 total observations over interval: 1995 07 23.41841 – 2023 06 19.295274
These data are available for download (format description).

Date (UT) J2000 RA J2000 Dec Magn Location Ref
1995 07 23.41841 21 39 08.09 -09 50 07.2 19.4 V 691 – Steward Observatory, Kitt Peak-Spacewatch MPS 32198
1995 07 23.42391 21 39 07.81 -09 50 08.0 19.3 V 691 – Steward Observatory, Kitt Peak-Spacewatch MPS 32198
1995 07 23.42975 21 39 07.53 -09 50 08.9 19.3 V 691 – Steward Observatory, Kitt Peak-Spacewatch MPS 32198
1998 03 22.25529 13 32 13.15 -14 32 04.8 18.7   704 – Lincoln Laboratory ETS, New Mexico MPS 1311
1998 03 22.27551 13 32 12.37 -14 32 04.0 19.6   704 – Lincoln Laboratory ETS, New Mexico MPS 1311
1998 03 22.31575 13 32 10.95 -14 31 55.1 19.7   704 – Lincoln Laboratory ETS, New Mexico MPS 1311
1998 03 22.33581 13 32 10.09 -14 31 54.8 19.7   704 – Lincoln Laboratory ETS, New Mexico MPS 1311
1998 03 25.33707 13 30 17.94 -14 22 29.4 18.8   704 – Lincoln Laboratory ETS, New Mexico MPS 1311
1998 03 25.35719 13 30 17.11 -14 22 25.9 19.3   704 – Lincoln Laboratory ETS, New Mexico MPS 1311
1998 03 25.37746 13 30 16.12 -14 22 21.0 19.3   704 – Lincoln Laboratory ETS, New Mexico MPS 1311
1998 03 25.39771 13 30 15.46 -14 22 16.4 19.4   704 – Lincoln Laboratory ETS, New Mexico MPS 1311
1998 03 29.29231 13 27 30.12 -14 07 16.5 19.5   704 – Lincoln Laboratory ETS, New Mexico MPS 13520
1998 03 29.31250 13 27 29.13 -14 07 10.5 18.9   704 – Lincoln Laboratory ETS, New Mexico MPS 13520
1998 03 29.33271 13 27 28.01 -14 07 04.0 18.9   704 – Lincoln Laboratory ETS, New Mexico MPS 13520
1998 03 29.35309 13 27 27.11 -14 06 59.4 19.1   704 – Lincoln Laboratory ETS, New Mexico MPS 13520
1998 03 29.37331 13 27 25.96 -14 06 54.8 19.5   704 – Lincoln Laboratory ETS, New Mexico MPS 13520
1998 04 01.33119 13 25 07.75 -13 53 25.3 18.3   704 – Lincoln Laboratory ETS, New Mexico MPS 1311
1998 04 01.35153 13 25 06.74 -13 53 20.0 18.9   704 – Lincoln Laboratory ETS, New Mexico MPS 1311
1998 04 01.37204 13 25 05.73 -13 53 14.7 19.1   704 – Lincoln Laboratory ETS, New Mexico MPS 1311
1998 04 01.39231 13 25 04.62 -13 53 07.5 19.0   704 – Lincoln Laboratory ETS, New Mexico MPS 1311
1998 04 01.41263 13 25 03.57 -13 53 01.8 19.3   704 – Lincoln Laboratory ETS, New Mexico MPS 1311
1998 04 20.24724 13 08 40.77 -11 58 43.8 18.6   704 – Lincoln Laboratory ETS, New Mexico MPS 1103
1998 04 20.28749 13 08 38.57 -11 58 29.3 18.6   704 – Lincoln Laboratory ETS, New Mexico MPS 1103
1998 04 20.30757 13 08 37.50 -11 58 19.9 18.6   704 – Lincoln Laboratory ETS, New Mexico MPS 1103
1998 04 20.32762 13 08 36.33 -11 58 11.5 18.9   704 – Lincoln Laboratory ETS, New Mexico MPS 1103
1998 04 21.19351 13 07 53.33 -11 52 22.2 18.3   704 – Lincoln Laboratory ETS, New Mexico MPS 1103
1998 04 21.21355 13 07 52.26 -11 52 13.1 18.2   704 – Lincoln Laboratory ETS, New Mexico MPS 1103
1998 04 21.23363 13 07 51.21 -11 52 04.8 18.2   704 – Lincoln Laboratory ETS, New Mexico MPS 1103
1998 04 21.25366 13 07 50.16 -11 51 56.6 18.6   704 – Lincoln Laboratory ETS, New Mexico MPS 1103
1998 04 21.27368 13 07 49.06 -11 51 48.8 18.2   704 – Lincoln Laboratory ETS, New Mexico MPS 1103
1998 04 22.16149 13 07 05.47 -11 45 48.7 18.6   704 – Lincoln Laboratory ETS, New Mexico MPS 1103
1998 04 22.18030 13 07 04.39 -11 45 42.6 18.6   704 – Lincoln Laboratory ETS, New Mexico MPS 1103
1998 04 22.19908 13 07 03.57 -11 45 33.4 18.7   704 – Lincoln Laboratory ETS, New Mexico MPS 1103
1998 04 22.21800 13 07 02.49 -11 45 26.7 18.6   704 – Lincoln Laboratory ETS, New Mexico MPS 1103
1998 04 22.23674 13 07 01.45 -11 45 19.3 19.2   704 – Lincoln Laboratory ETS, New Mexico MPS 1103
1998 04 25.26584 13 04 37.52 -11 25 02.1 18.1 R 699 – Lowell Observatory-LONEOS MPS 1311
1998 04 25.27576 13 04 37.03 -11 24 58.1   699 – Lowell Observatory-LONEOS MPS 1311
1998 04 25.28568 13 04 36.58 -11 24 53.7   699 – Lowell Observatory-LONEOS MPS 1311
1998 04 30.22076 13 01 05.98 -10 52 54.1 18.5 R 699 – Lowell Observatory-LONEOS MPS 1311
1998 04 30.23566 13 01 05.24 -10 52 50.5   699 – Lowell Observatory-LONEOS MPS 1311
1998 04 30.26352 13 01 04.12 -10 52 40.3   699 – Lowell Observatory-LONEOS MPS 1311
1999 10 13.27174 00 36 46.01 +08 17 21.8 20.3   704 – Lincoln Laboratory ETS, New Mexico MPS 13918
1999 10 13.28801 00 36 45.13 +08 17 14.9 20.0   704 – Lincoln Laboratory ETS, New Mexico MPS 13918
1999 10 13.30368 00 36 44.21 +08 17 09.0 20.2   704 – Lincoln Laboratory ETS, New Mexico MPS 13918
1999 10 13.32399 00 36 43.07 +08 17 01.6 20.3   704 – Lincoln Laboratory ETS, New Mexico MPS 13918
1999 10 15.25437 00 34 59.68 +08 04 10.2 19.8   704 – Lincoln Laboratory ETS, New Mexico MPS 13918
1999 10 15.27019 00 34 58.77 +08 04 04.5 20.1   704 – Lincoln Laboratory ETS, New Mexico MPS 13918
1999 10 15.31857 00 34 56.12 +08 03 45.1 20.4   704 – Lincoln Laboratory ETS, New Mexico MPS 13918
2000 12 22.32601 07 58 22.35 +18 29 49.0 20.4 V 691 – Steward Observatory, Kitt Peak-Spacewatch MPS 23548
2000 12 22.34805 07 58 21.28 +18 29 50.2 20.1 V 691 – Steward Observatory, Kitt Peak-Spacewatch MPS 23548
2000 12 22.37054 07 58 20.11 +18 29 51.4 19.5 V 691 – Steward Observatory, Kitt Peak-Spacewatch MPS 23548
2002 06 11.45978 20 09 15.55 -18 08 52.1 18.3   644 – Palomar Mountain/NEAT MPS 56819
2002 06 11.47040 20 09 15.30 -18 08 49.3 18.7   644 – Palomar Mountain/NEAT MPS 56819
2002 06 11.48079 20 09 15.11 -18 08 48.4 18.9   644 – Palomar Mountain/NEAT MPS 56819
2002 06 18.37860 20 06 21.83 -18 01 49.2 18.9   704 – Lincoln Laboratory ETS, New Mexico MPS 56819
2002 06 18.39217 20 06 21.41 -18 01 48.2 18.8   704 – Lincoln Laboratory ETS, New Mexico MPS 56819
2002 06 18.40575 20 06 20.91 -18 01 48.3 19.0   704 – Lincoln Laboratory ETS, New Mexico MPS 56819
2002 06 18.41914 20 06 20.43 -18 01 48.5 19.0   704 – Lincoln Laboratory ETS, New Mexico MPS 56819
2002 06 29.30007 19 58 47.60 -18 00 05.8 18.6   644 – Palomar Mountain/NEAT MPS 58668
2002 06 29.37015 19 58 43.89 -18 00 07.1 18.4   644 – Palomar Mountain/NEAT MPS 58668
2002 06 29.44369 19 58 39.99 -18 00 08.4 18.5   644 – Palomar Mountain/NEAT MPS 58668
2002 07 04.30573 19 54 20.56 -18 02 27.8 18.5   644 – Palomar Mountain/NEAT MPS 58668
2002 07 04.32690 19 54 19.31 -18 02 28.5 18.3   644 – Palomar Mountain/NEAT MPS 58668
2002 07 04.34797 19 54 18.08 -18 02 29.2 18.3   644 – Palomar Mountain/NEAT MPS 58668
2002 07 05.31665 19 53 23.16 -18 03 09.7 18.7   704 – Lincoln Laboratory ETS, New Mexico MPS 58668
2002 07 05.32925 19 53 22.45 -18 03 10.0 19.1   704 – Lincoln Laboratory ETS, New Mexico MPS 58668
2002 07 05.34207 19 53 21.64 -18 03 10.2 19.0   704 – Lincoln Laboratory ETS, New Mexico MPS 58668
2002 07 05.35555 19 53 20.82 -18 03 10.9 19.1   704 – Lincoln Laboratory ETS, New Mexico MPS 58668
2002 07 05.36828 19 53 20.12 -18 03 10.1 19.1   704 – Lincoln Laboratory ETS, New Mexico MPS 58668
2002 07 14.23592 19 44 28.91 -18 11 18.0 18.9   704 – Lincoln Laboratory ETS, New Mexico MPS 58668
2002 07 14.24927 19 44 28.01 -18 11 18.9 19.1   704 – Lincoln Laboratory ETS, New Mexico MPS 58668
2002 07 14.27591 19 44 26.29 -18 11 20.8 18.7   704 – Lincoln Laboratory ETS, New Mexico MPS 58668
2002 07 14.28925 19 44 25.47 -18 11 21.0 19.5   704 – Lincoln Laboratory ETS, New Mexico MPS 58668
2002 08 03.16996 19 25 54.14 -18 34 29.3 18.8   644 – Palomar Mountain/NEAT MPS 59549
2002 08 03.24301 19 25 50.66 -18 34 34.3 18.6   644 – Palomar Mountain/NEAT MPS 59549
2002 08 03.30598 19 25 47.64 -18 34 38.3 18.7   644 – Palomar Mountain/NEAT MPS 59549
2003 10 18.46366 03 58 38.99 +22 31 03.1 20.6 V 691 – Steward Observatory, Kitt Peak-Spacewatch MPS 89005
2003 10 18.47844 03 58 38.43 +22 31 01.4 20.5 V 691 – Steward Observatory, Kitt Peak-Spacewatch MPS 89005
2003 10 18.49268 03 58 37.91 +22 30 59.5 20.6 V 691 – Steward Observatory, Kitt Peak-Spacewatch MPS 89005
2003 10 29.29187 03 50 42.25 +22 03 56.2 20.0   704 – Lincoln Laboratory ETS, New Mexico MPS 90261
2003 10 29.30384 03 50 41.57 +22 03 54.1 19.9   704 – Lincoln Laboratory ETS, New Mexico MPS 90261
2003 10 29.31634 03 50 40.97 +22 03 52.2 20.0   704 – Lincoln Laboratory ETS, New Mexico MPS 90261
2003 11 15.35436 03 33 47.77 +20 58 23.5 20.0 V 691 – Steward Observatory, Kitt Peak-Spacewatch MPS 91454
2003 11 15.38257 03 33 45.91 +20 58 15.7 20.2 V 691 – Steward Observatory, Kitt Peak-Spacewatch MPS 91454
